This is the latest recevied weather packets stored in our database for station/object YO8SSH-13. If no packets are shown the sender has not sent any weather packets the latest 10 day(s).
| Time | Temp. | Humidity | Pressure | Rain* | Wind** | Luminosity | Snow |
|---|---|---|---|---|---|---|---|
| 1777717557 | 14.44° C | 47% | 1021 hPa | 0 mm | - | - | - |
| 1777716659 | 14.44° C | 49% | 1021 hPa | 0 mm | - | - | - |
| 1777715762 | 13.33° C | 49% | 1021 hPa | 0 mm | - | - | - |
| 1777714865 | 14.44° C | 48% | 1022 hPa | 0 mm | - | - | - |
| 1777713966 | 15° C | 49% | 1022 hPa | 0 mm | - | - | - |
| 1777713195 | 15° C | 51% | 1022 hPa | 0 mm | - | - | - |
| 1777712317 | 13.89° C | 52% | 1022 hPa | 0 mm | - | - | - |
| 1777711395 | 14.44° C | 54% | 1022 hPa | 0 mm | - | - | - |
| 1777710495 | 15° C | 53% | 1022 hPa | 0 mm | - | - | - |
| 1777709597 | 14.44° C | 55% | 1022 hPa | 0 mm | - | - | - |
| 1777708696 | 13.33° C | 58% | 1022 hPa | 0 mm | - | - | - |
| 1777707795 | 12.22° C | 59% | 1022 hPa | 0 mm | - | - | - |
| 1777706906 | 12.22° C | 60% | 1022 hPa | 0 mm | - | - | - |
| 1777705995 | 11.67° C | 63% | 1022 hPa | 0 mm | - | - | - |
| 1777705096 | 11.67° C | 66% | 1022 hPa | 0 mm | - | - | - |
| 1777704196 | 10° C | 70% | 1021 hPa | 0 mm | - | - | - |
| 1777703295 | 9.44° C | 72% | 1021 hPa | 0 mm | - | - | - |
| 1777702396 | 8.89° C | 75% | 1021 hPa | 0 mm | - | - | - |
| 1777701494 | 7.78° C | 74% | 1021 hPa | 0 mm | - | - | - |
| 1777700596 | 7.78° C | 74% | 1021 hPa | 0 mm | - | - | - |
| 1777699695 | 7.22° C | 75% | 1021 hPa | 0 mm | - | - | - |
| 1777698796 | 7.22° C | 75% | 1021 hPa | 0 mm | - | - | - |
| 1777697896 | 6.67° C | 75% | 1021 hPa | 0 mm | - | - | - |
| 1777696996 | 6.67° C | 74% | 1021 hPa | 0 mm | - | - | - |
| 1777696095 | 6.67° C | 74% | 1021 hPa | 0 mm | - | - | - |
* Rain latest hour (hover to see other rain measurements)
** Current wind speed in m/s (hover to see current wind gust speed)